This is the latest recevied weather packets stored in our database for station/object IZ6UQU-13. If no packets are shown the sender has not sent any weather packets the latest 10 day(s).
| Time | Temp. | Humidity | Pressure | Rain* | Wind** | Luminosity | Snow |
|---|---|---|---|---|---|---|---|
| 1777889409 | 20° C | 59% | 959.9 hPa | 0 mm | - | - | - |
| 1777889109 | 19.44° C | 61% | 960 hPa | 0 mm | - | - | - |
| 1777888809 | 18.89° C | 61% | 960.1 hPa | 0 mm | - | - | - |
| 1777888509 | 18.33° C | 62% | 960 hPa | 0 mm | - | - | - |
| 1777888209 | 18.89° C | 62% | 960.1 hPa | 0 mm | - | - | - |
| 1777887909 | 18.89° C | 62% | 960.1 hPa | 0 mm | - | - | - |
| 1777887609 | 18.33° C | 64% | 960.3 hPa | 0 mm | - | - | - |
| 1777887309 | 18.33° C | 64% | 960.2 hPa | 0 mm | - | - | - |
| 1777887009 | 17.78° C | 66% | 960.3 hPa | 0 mm | - | - | - |
| 1777886709 | 17.22° C | 67% | 960.4 hPa | 0 mm | - | - | - |
| 1777886409 | 17.22° C | 67% | 960.5 hPa | 0 mm | - | - | - |
| 1777886109 | 17.22° C | 66% | 960.5 hPa | 0 mm | - | - | - |
| 1777885809 | 17.22° C | 64% | 960.5 hPa | 0 mm | - | - | - |
| 1777885509 | 17.78° C | 66% | 960.5 hPa | 0 mm | - | - | - |
| 1777885209 | 17.22° C | 67% | 960.7 hPa | 0 mm | - | - | - |
| 1777884909 | 17.22° C | 67% | 960.7 hPa | 0 mm | - | - | - |
| 1777884609 | 17.22° C | 68% | 960.8 hPa | 0 mm | - | - | - |
| 1777884309 | 16.67° C | 70% | 960.8 hPa | 0 mm | - | - | - |
| 1777884009 | 16.11° C | 71% | 960.7 hPa | 0 mm | - | - | - |
| 1777883709 | 16.11° C | 73% | 960.8 hPa | 0 mm | - | - | - |
| 1777883409 | 16.11° C | 71% | 960.8 hPa | 0 mm | - | - | - |
| 1777883109 | 16.11° C | 74% | 960.7 hPa | 0 mm | - | - | - |
| 1777882809 | 15.56° C | 72% | 960.7 hPa | 0 mm | - | - | - |
| 1777882509 | 16.11° C | 71% | 960.7 hPa | 0 mm | - | - | - |
| 1777882209 | 16.11° C | 71% | 960.7 hPa | 0 mm | - | - | - |
* Rain latest hour (hover to see other rain measurements)
** Current wind speed in m/s (hover to see current wind gust speed)